THORAD AGENA D DEB, 42554

Orbit data source: Space-Track

THORAD AGENA D DEB, 42554 is space debris in SSO originally from a launch on Wed, 08 Apr 1970 UTC launched from the Air Force Western Test Range (AFWTR). Debris objects in space refer to the collection of defunct objects orbiting the Earth. Examples of debris include non-operational satellites, rocket bodies, and fragments generated from explosions, collisions, or faulty payload assembly.

Loading next visibility...
Identifier
42554, 1970-025TL
Orbit
SSO
Country
Flag of USUS
Related business
Manufacturer
Unknown
Mission
Spacecraft
Bus & Motor
Unknown
Mass
Unknown
Launch date (UTC)
1970-04-08 (56 years ago)
Launch vehicle
Unknown
Launch site
Air Force Western Test Range (AFWTR)
Object type
Payload
Rocket body
Debris
Shape & HBR
Unknown shape, 0.1 m
Radar Cross Section
Small (<0.1 m²)

Expand to show TLE details & history
Last TLE update: 3 days ago

TLE from 3 days ago
0 THORAD AGENA D DEB
1 42554U 70025TL  25294.15025172  .00001470  00000-0  14469-2 0  9997
2 42554 100.0424  81.6250 0038334 308.0187  51.7505 13.80353307552922
Epoch: 2025-10-21T03:36Z
TLE epoch observation values (Epoch: 2025-10-21T03:36:21.748Z)
Latitude
-0°
Longitude
-2.30796°
Altitude
948.091 km
Speed
7.386 km/s
True Right ascension
05h 26m 30s
True Declination
0° 00' 00"
Sunlit
Object was in full shadow at epoch
Visualization orbit readout
Latitude
Unknown
Longitude
Unknown
Altitude
Unknown
Speed
Unknown
Apparent Right ascension
Unknown
Apparent Declination
Unknown
Sunlit
N/A
Visualization observer readout
Local Sidereal Time
12:19:39
Azimuth
Unknown
Elevation
Unknown
Doppler factor
Unknown
Orbital elements
Apogee altitude
988.043 km
Perigee altitude
931.783 km
Semi-major axis
7,338.05 km
Eccentricity
0.00383
Inclination
100.0424°
RAAN
81.625°
Arg. of periapsis
308.0187°
True anomaly
52.0965°
Mean anomaly
51.7505°
Eccentric anomaly
51.9234°
Mean motion
3.45281 °/min
Orbital period
104.26 mins
BSTAR
0.0014469
Loading maneuver chart data...
Computing Atmospheric mass density...

Documentation

Showing up to 5 results
|